Weather observations for the past three days for
South St. Paul Municipal-Richard E. Flemi
Imperial (Metric)
Date Time (cdt) Wind (mph) Vis. (mi.) Weather Sky Cond. Temperature (ºF) Relative Humidity Wind Chill (°F) Heat Index (°F) Pressure Precipitation (in)
Air Dwpt 6 hour altimeter (in) sea level (mb) 1 hr 3 hr 6 hr
Max. Min.
16 17:35 SW 10 10.00 Mostly Cloudy BKN041 BKN048 87.6 70.3 57% 93 29.61 0.0
16 17:15 SW 10 10.00 Partly Cloudy SCT041 SCT048 SCT060 87.8 70.2 56% 93 29.6 0.0
16 16:55 SW 12 G 17 10.00 Partly Cloudy SCT050 SCT060 87.8 70.7 57% 93 29.61 0.0
16 16:35 SW 10 G 18 10.00 Overcast OVC050 86.9 69.8 57% 92 29.61 0.0
16 16:15 SW 12 G 20 10.00 Overcast SCT047 OVC055 87.1 69.4 56% 92 29.61 0.0
16 15:55 SW 15 G 20 10.00 Overcast SCT041 BKN047 OVC055 87.3 69.3 55% 92 29.61 0.0
16 15:35 SW 12 G 20 10.00 Overcast BKN041 OVC047 86.9 69.4 56% 91 29.61 0.0
16 15:15 SW 12 G 21 10.00 Mostly Cloudy BKN038 BKN044 87.6 69.8 56% 92 29.61 0.0
16 14:55 SW 14 G 23 10.00 Partly Cloudy SCT038 86.9 69.6 57% 92 29.6 0.0
16 14:35 SW 16 G 21 10.00 Mostly Cloudy BKN038 86 68.7 56% 90 29.61 0.0
16 14:15 S 14 G 23 10.00 Partly Cloudy SCT034 85.8 69.4 58% 90 29.61 0.0
16 13:55 S 13 G 18 10.00 Mostly Cloudy BKN032 85.5 69.4 59% 90 29.61 0.0
16 13:35 SW 16 G 23 10.00 Mostly Cloudy BKN032 84.9 69.6 60% 89 29.61 0.0
16 13:15 S 16 G 23 10.00 Overcast OVC032 83.7 69.3 62% 87 29.62 0.0
16 12:55 SW 14 G 24 10.00 Overcast OVC030 84.2 69.6 84.2 66.9 62% 88 29.62 0.0
16 12:35 S 16 G 25 10.00 Overcast OVC030 82.8 69.3 64% 86 29.62 0.0
16 12:15 S 13 G 21 10.00 Overcast OVC030 82 69.4 66% 86 29.62 0.0
16 11:55 SW 14 10.00 Overcast OVC028 80.6 68.9 68% 84 29.63 0.0
16 11:35 S 12 G 21 10.00 Overcast OVC026 80.8 69.3 68% 84 29.63 0.0
16 11:15 S 12 G 24 10.00 Mostly Cloudy BKN026 80.2 68.4 67% 83 29.63 0.0
16 10:55 S 13 G 18 10.00 Mostly Cloudy BKN024 79.7 68.7 69% 82 29.64 0.0
16 10:35 S 14 G 20 7.00 Overcast OVC024 78.3 68.2 71% 80 29.65 0.0
16 10:15 S 9 G 17 10.00 Overcast OVC022 76.5 68 75% 78 29.64 0.0
16 09:55 S 8 10.00 Overcast OVC022 75.7 67.8 77% 77 29.65 0.0
16 09:35 S 13 G 18 10.00 Overcast OVC018 74.1 68 81% 29.65 0.0
16 09:15 S 12 10.00 Overcast OVC018 72.5 68 86% 29.66 0.0
16 08:55 S 15 G 21 10.00 Overcast OVC018 71.8 67.8 87% 29.65 0.0
16 08:35 S 12 G 16 10.00 Overcast OVC018 71.2 68 90% 29.66 0.0
16 08:15 S 12 G 17 10.00 Overcast OVC016 70.7 68 91% 29.66 0.0
16 07:55 S 9 10.00 Overcast OVC016 69.8 68.2 95% 29.65 0.0
16 07:35 S 6 10.00 Overcast OVC018 68.5 68.4 99% 29.65 0.0
16 07:15 S 8 10.00 Overcast BKN018 BKN023 OVC050 67.5 67.5 100% 29.65 0.0
16 06:55 S 5 10.00 Overcast SCT018 SCT025 OVC050 66.7 66.7 66.7 63.9 100% 29.66 0.0 0.44
16 06:35 SE 5 10.00 Overcast SCT013 SCT032 OVC048 66 66 100% 29.65 0.0
16 06:15 S 3 10.00 Overcast SCT013 BKN040 OVC050 65.3 65.3 100% 29.67 0.0
16 05:55 SE 3 10.00 Overcast SCT013 SCT018 OVC048 64.6 64.6 100% 29.67 0.0
16 05:35 SE 3 10.00 Overcast SCT013 BKN044 OVC050 64.4 64.4 100% 29.67 0.0
16 05:15 S 5 10.00 Overcast SCT012 BKN050 OVC060 63.9 63.9 100% 29.67 0.0
16 04:55 S 7 10.00 Overcast SCT012 BKN060 OVC070 63.9 63.9 100% 29.67 0.0
16 04:35 S 7 10.00 Overcast SCT049 OVC060 64 64 100% 29.67 0.0
16 04:15 S 7 10.00 Overcast SCT033 BKN050 OVC065 64 64 100% 29.68 0.0
16 03:55 S 5 10.00 Overcast BKN033 BKN039 OVC048 64 64 100% 29.68 0.0 0.04 0.44
16 03:35 SE 6 10.00 Light Rain SCT006 BKN035 OVC048 64 64 100% 29.68 0.0 0.04
16 03:15 Calm 5.00 Light Rain BKN006 BKN033 OVC110 64.2 64.2 100% 29.7 0.0 0.02
16 02:55 S 6 10.00 Light Rain SCT006 SCT048 OVC110 64 64 100% 29.7 0.0 0.09
16 02:35 SW 10 7.00 Light Rain SCT006 BKN100 OVC110 63.9 63.9 100% 29.72 0.0 0.08
16 02:15 S 8 5.00 Light Rain SCT008 BKN041 OVC100 63.9 63.9 100% 29.73 0.0 0.04
16 01:55 SE 10 G 17 3.00 Rain BKN009 BKN055 OVC090 63.9 63.9 100% 29.73 0.0 0.3
16 01:35 SE 8 4.00 Thunderstorm Light Rain BKN007 BKN060 OVC090 63.9 63.9 100% 29.74 0.0 0.19
16 01:15 SE 8 4.00 Thunderstorm Light Rain BKN007 OVC019 63.9 63.7 99% 29.76 0.0 0.09
16 00:55 S 8 4.00 Rain BKN007 OVC019 63.9 63.7 64.6 62.2 99% 29.76 0.0 0.22 0.48
16 00:35 SE 6 4.00 Thunderstorm Light Rain BKN007 BKN015 OVC047 63.7 63.5 99% 29.76 0.0 0.13
16 00:15 SE 8 4.00 Thunderstorm Light Rain in Vicinity BKN007 BKN024 OVC100 63.7 63.5 99% 29.76 0.0 0.06
15 23:55 SE 8 4.00 Thunderstorm Light Rain SCT049 SCT070 OVC100 63.7 63.5 99% 29.76 0.0 0.11
15 23:35 SE 8 5.00 Thunderstorm Rain in Vicinity BKN047 BKN060 OVC110 64 62.8 96% 29.77 0.0 0.04
15 23:15 SE 8 10.00 Thunderstorm in Vicinity SCT043 BKN049 OVC080 63.9 62.6 96% 29.77 0.0 0.01
15 22:55 SE 9 G 16 4.00 Thunderstorm Light Rain in Vicinity BKN044 OVC050 64.4 62.1 92% 29.77 0.0 0.05
15 22:35 SE 7 G 16 10.00 Overcast BKN049 BKN060 OVC110 64.4 61.3 90% 29.78 0.0
15 22:15 SE 10 G 16 10.00 Overcast SCT049 BKN060 OVC070 64.4 61.5 90% 29.78 0.0
15 21:55 SE 8 10.00 Overcast BKN065 OVC075 64 61.3 91% 29.79 0.0 0.09
15 21:35 SE 9 10.00 Overcast SCT065 OVC085 63.7 61.2 92% 29.8 0.0
15 21:15 SE 8 G 16 10.00 Overcast SCT065 BKN075 OVC100 63 62.1 97% 29.79 0.0
15 20:55 SE 8 10.00 Overcast SCT065 OVC075 62.4 62.2 99% 29.78 0.0 0.01
15 20:35 SE 9 G 16 7.00 Light Rain SCT015 OVC065 62.4 62.1 99% 29.79 0.0 0.01
15 20:15 SE 12 G 16 10.00 Overcast BKN065 OVC075 62.6 62.2 99% 29.8 0.0
15 19:55 SE 9 7.00 Overcast SCT011 SCT055 OVC070 62.4 62.1 99% 29.81 0.0 0.08
15 19:35 SE 6 2.50 Light Rain BKN055 BKN080 OVC100 62.6 62.2 99% 29.83 0.0 0.05
15 19:15 SE 7 10.00 Overcast SCT009 OVC055 62.6 62.2 99% 29.84 0.0
15 18:55 E 7 5.00 Light Rain SCT013 BKN055 OVC080 62.6 62.2 66.9 61.5 99% 29.84 0.0 0.25 0.72
15 18:35 E 5 2.50 Light Rain SCT009 BKN060 OVC065 62.6 62.2 99% 29.85 0.0 0.23
15 18:15 SE 6 1.00 Rain BKN029 BKN044 OVC050 62.6 62.6 100% 29.85 0.0 0.16
15 17:55 E 6 2.00 Light Rain OVC070 62.2 62.1 99% 29.87 0.0 0.06
15 17:35 SE 6 7.00 Overcast SCT070 OVC085 62.1 61.9 99% 29.87 0.0 0.03
15 17:15 SE 6 7.00 Light Rain BKN060 BKN075 OVC090 61.7 61.7 100% 29.88 0.0 0.02
15 16:55 SE 6 4.00 Light Rain SCT037 SCT043 OVC060 61.7 61.2 98% 29.89 0.0 0.17
15 16:35 SE 8 2.50 Light Rain BKN037 OVC047 61.7 61.3 99% 29.9 0.0 0.12
15 16:15 SE 5 1.75 Rain BKN042 OVC047 62.1 61.7 99% 29.9 0.0 0.07
15 15:55 SE 6 4.00 Light Rain BKN040 OVC048 62.1 61.7 99% 29.9 0.0 0.04 0.22
15 15:35 SE 7 7.00 Overcast OVC048 61.7 61.2 98% 29.91 0.0 0.01
15 15:15 SE 5 7.00 Light Rain BKN048 OVC065 61.7 61.2 98% 29.92 0.0
15 14:55 SE 6 7.00 Overcast SCT040 OVC060 61.7 61.2 98% 29.92 0.0 0.14
15 14:35 SE 7 3.00 Light Rain SCT030 BKN039 OVC060 62.1 60.8 96% 29.93 0.0 0.12
15 14:15 SE 8 G 17 2.00 Light Rain SCT028 BKN034 OVC042 63.5 60.1 89% 29.95 0.0 0.07
15 13:55 SE 10 3.00 Light Rain SCT034 BKN044 OVC090 65.7 59.5 81% 29.95 0.0 0.02
15 13:35 SE 8 10.00 Overcast SCT043 SCT075 OVC090 66.7 58.6 75% 29.95 0.0
15 13:15 SE 9 10.00 Overcast SCT045 SCT065 OVC100 66.9 57.9 73% 29.95 0.0
15 12:55 SE 7 10.00 Overcast OVC110 66.6 57.6 69.1 64.9 73% 29.95 0.0 0.02
15 12:35 SE 7 10.00 Overcast OVC100 66.4 58.8 77% 29.96 0.0
15 12:15 SE 8 10.00 Overcast OVC100 66 59 78% 29.95 0.0
15 11:55 SE 6 10.00 Light Rain SCT047 BKN100 OVC110 65.3 60.1 83% 29.95 0.0 0.02
15 11:35 SE 8 7.00 Light Rain SCT070 OVC100 64.9 60.1 84% 29.96 0.0 0.02
15 11:15 SE 7 10.00 Light Rain SCT050 BKN080 OVC090 65.3 59.9 83% 29.97 0.0 0.01
15 10:55 SE 8 10.00 Light Rain SCT033 BKN070 OVC080 66.6 59.4 78% 29.98 0.0
15 10:35 S 10 10.00 Light Rain SCT033 SCT044 BKN110 68 58.1 71% 29.99 0.0
15 10:15 SE 7 10.00 Partly Cloudy SCT120 68.9 57.4 67% 30 0.0
15 09:55 SE 10 10.00 Fair CLR 69.1 57 66% 30 0.0
15 09:35 S 8 10.00 Fair CLR 68.5 56.7 66% 30.01 0.0
15 09:15 SE 6 10.00 Partly Cloudy SCT110 68 56.3 66% 30.01 0.0
15 08:55 S 8 10.00 Partly Cloudy SCT100 67.6 55.6 65% 30.02 0.0
15 08:35 S 10 G 16 10.00 Mostly Cloudy BKN100 BKN120 67.1 55.4 66% 30.03 0.0
15 08:15 SE 7 7.00 Partly Cloudy SCT120 66.9 55.2 66% 29.99 0.0
15 07:55 SE 7 10.00 Partly Cloudy SCT110 67.1 55.8 67% 30.02 0.0
15 07:35 S 8 10.00 Overcast OVC110 66.6 55.4 67% 30.03 0.0
15 07:15 SE 6 10.00 Mostly Cloudy BKN110 66 55.9 70% 30.03 0.0
15 06:55 SE 5 10.00 Overcast OVC110 65.8 55.8 66.4 63.3 70% 30.03 0.0
15 06:35 S 3 10.00 Overcast OVC110 64.9 55.8 72% 30.03 0.0
15 06:15 SE 3 10.00 Overcast OVC100 64.8 55.6 72% 30.03 0.0
15 05:55 SE 3 10.00 Mostly Cloudy BKN110 64.8 55.6 72% 30.03 0.0
15 05:35 S 3 10.00 Fair CLR 64.6 55.4 72% 30.03 0.0
15 05:15 Calm 10.00 Fair CLR 64.4 54.9 71% 30.03 0.0
15 04:55 SE 3 10.00 Partly Cloudy SCT120 64.4 55.6 73% 30.03 0.0
15 04:35 SE 3 10.00 Partly Cloudy SCT120 64.9 56.5 74% 30.03 0.0
15 04:15 SE 3 10.00 Mostly Cloudy BKN120 65.1 57 75% 30.04 0.0
15 03:55 SE 3 10.00 Overcast OVC110 65.3 57.7 77% 30.04 0.0
15 03:35 SE 3 10.00 Overcast OVC120 65.3 55.9 72% 30.04 0.0
15 03:15 Calm 10.00 Mostly Cloudy BKN120 64.2 56.8 77% 30.04 0.0
15 02:55 Calm 10.00 Fair CLR 63.5 57.4 81% 30.04 0.0
15 02:35 Calm 10.00 Fair CLR 64 57.6 80% 30.03 0.0
15 02:15 Calm 10.00 Fair CLR 64.8 56.5 75% 30.02 0.0
15 01:55 Calm 10.00 Fair CLR 64.9 56.1 73% 30.03 0.0
15 01:35 Calm 10.00 Fair CLR 66.2 55.6 69% 30.03 0.0
15 01:15 Calm 10.00 Fair CLR 66.2 54.5 66% 30.03 0.0
15 00:55 Calm 10.00 Fair CLR 65.8 54.5 78.4 64.9 67% 30.03 0.0
15 00:35 Calm 10.00 Fair CLR 65.1 55 70% 30.04 0.0
15 00:15 SE 3 10.00 Fair CLR 66.4 54.5 66% 30.05 0.0
14 23:55 Calm 10.00 Fair CLR 66.9 55 66% 30.05 0.0
14 23:35 Calm 10.00 Fair CLR 68.2 53.8 60% 30.05 0.0
14 23:15 Calm 10.00 Fair CLR 69.1 53.1 57% 30.03 0.0
14 22:55 SE 3 10.00 Fair CLR 69.3 53.4 57% 30.04 0.0
14 22:35 Calm 10.00 Fair CLR 70.2 54.7 58% 30.04 0.0
14 22:15 Calm 10.00 Fair CLR 71.2 53.2 53% 30.04 0.0
14 21:55 Calm 10.00 Fair CLR 70.9 54.5 56% 30.04 0.0
14 21:35 Calm 10.00 Fair CLR 73 52 48% 30.04 0.0
14 21:15 S 3 10.00 Fair CLR 73.8 51.6 46% 30.04 0.0
14 20:55 SE 3 10.00 Fair CLR 74.7 51.3 44% 30.04 0.0
14 20:35 SE 3 10.00 Fair CLR 75.4 51.1 43% 78 30.04 0.0
14 20:15 SE 3 10.00 Fair CLR 76.3 50.4 40% 78 30.04 0.0
14 19:55 SE 3 10.00 Fair CLR 76.3 49.5 39% 78 30.03 0.0
14 19:35 S 5 10.00 Fair CLR 77.2 49.5 38% 78 30.03 0.0
14 19:15 SE 6 10.00 Fair CLR 77.5 49.5 37% 78 30.03 0.0
14 18:55 SE 5 10.00 Fair CLR 78.6 49.1 79 74.8 36% 79 30.02 0.0
14 18:35 Calm 10.00 Fair CLR 78.4 48.4 35% 79 30.03 0.0
14 18:15 Calm 10.00 Fair CLR 78.4 47.7 34% 79 30.03 0.0
14 17:55 Calm 10.00 Fair CLR 79 49.6 36% 79 30.03 0.0
14 17:35 Calm 10.00 Fair CLR 78.6 50.4 37% 79 30.04 0.0
14 17:15 NE 3 10.00 Fair CLR 78.6 49.6 36% 79 30.04 0.0
14 16:55 Calm 10.00 Partly Cloudy SCT060 77.9 47.8 35% 78 30.04 0.0
14 16:35 Calm 10.00 Mostly Cloudy BKN060 77.4 48 36% 78 30.04 0.0
14 16:15 Calm 10.00 Partly Cloudy SCT060 77.2 50.5 39% 78 30.05 0.0
14 15:55 E 6 10.00 Partly Cloudy SCT060 77.5 48.7 36% 78 30.05 0.0
14 15:35 N 3 10.00 Mostly Cloudy BKN060 77.4 48.4 36% 78 30.05 0.0
14 15:15 NW 5 10.00 Mostly Cloudy BKN060 77.9 49.6 37% 79 30.06 0.0
14 14:55 N 5 10.00 Partly Cloudy SCT060 77.5 49.5 37% 78 30.06 0.0
14 14:35 N 6 10.00 Partly Cloudy SCT060 77 49.8 39% 78 30.06 0.0
14 14:15 NE 6 10.00 Fair CLR 77 49.1 38% 78 30.06 0.0
14 13:55 N 10 G 16 10.00 Partly Cloudy SCT060 77 49.6 38% 78 30.05 0.0
14 13:35 W 5 10.00 Partly Cloudy SCT060 75.4 50 41% 78 30.06 0.0
14 13:15 W 6 10.00 Partly Cloudy SCT060 76.1 50.7 41% 78 30.07 0.0
14 12:55 NW 12 10.00 Fair CLR 76.1 50.5 76.1 63.9 41% 78 30.07 0.0
14 12:35 N 10 G 16 10.00 Fair CLR 75.7 49.3 39% 78 30.07 0.0
14 12:15 NW 10 10.00 Fair CLR 74.7 48.9 40% 30.09 0.0
14 11:55 Calm 10.00 Partly Cloudy SCT050 73.4 48.9 42% 30.08 0.0
14 11:35 N 9 10.00 Partly Cloudy SCT050 73.9 50.2 43% 30.08 0.0
14 11:15 NW 8 10.00 Partly Cloudy SCT050 74.3 49.5 42% 30.08 0.0
14 10:55 NW 6 10.00 Fair CLR 72.7 48.7 43% 30.08 0.0
14 10:35 N 7 10.00 Fair CLR 72.9 50 45% 30.08 0.0
14 10:15 N 6 10.00 Fair CLR 72.3 50.4 46% 30.08 0.0
14 09:55 NW 7 10.00 Fair CLR 71.6 51.3 49% 30.07 0.0
14 09:35 N 5 10.00 Fair CLR 71.1 51.4 50% 30.07 0.0
14 09:15 NW 5 10.00 Fair CLR 70 51.6 52% 30.08 0.0
14 08:55 N 5 10.00 Fair CLR 69.3 52.5 55% 30.07 0.0
14 08:35 N 5 10.00 Fair CLR 68 52 57% 30.07 0.0
14 08:15 NW 3 10.00 Fair CLR 67.5 52 58% 30.07 0.0
14 07:55 N 5 10.00 Fair CLR 66.2 52.3 61% 30.06 0.0
14 07:35 N 5 10.00 Fair CLR 65.7 52.2 62% 30.06 0.0
14 07:15 N 3 10.00 Fair CLR 64.8 52 63% 30.05 0.0
14 06:55 NW 3 10.00 Fair CLR 63.9 51.8 69.4 59 65% 30.05 0.0
14 06:35 Calm 10.00 Fair CLR 61.9 51.3 68% 30.04 0.0
14 06:15 Calm 10.00 Fair CLR 59.9 51.3 73% 30.03 0.0
14 05:55 Calm 10.00 Fair CLR 59.4 50.9 74% 30.03 0.0
14 05:35 Calm 10.00 Fair CLR 59 50.7 74% 30.03 0.0
14 05:15 Calm 10.00 Fair CLR 59.9 50.5 71% 30.02 0.0
14 04:55 Calm 10.00 Fair CLR 60.3 50.4 70% 30.02 0.0
14 04:35 Calm 10.00 Fair CLR 60.8 50.2 68% 30.01 0.0
14 04:15 SW 3 10.00 Fair CLR 61.2 50.2 67% 30 0.0
14 03:55 Calm 10.00 Fair CLR 62.2 49.3 63% 30 0.0
14 03:35 Calm 10.00 Fair CLR 63.9 48.9 58% 29.99 0.0
14 03:15 Calm 10.00 Fair CLR 65.1 48.6 55% 29.98 0.0
14 02:55 N 3 10.00 Fair CLR 65.7 48.2 53% 29.97 0.0
14 02:35 N 5 10.00 Fair CLR 66 48 52% 29.97 0.0
14 02:15 Calm 10.00 Fair CLR 66.9 47.8 50% 29.97 0.0
14 01:55 NW 3 10.00 Fair CLR 67.5 47.7 49% 29.96 0.0
14 01:35 NW 6 10.00 Fair CLR 68.4 47.5 47% 29.96 0.0
14 01:15 N 8 10.00 Fair CLR 69.1 46.9 45% 29.95 0.0
14 00:55 N 7 10.00 Fair CLR 69.3 47.3 81.9 67.6 46% 29.94 0.0
14 00:35 N 6 10.00 Fair CLR 70.9 46.6 42% 29.94 0.0
14 00:15 N 6 10.00 Fair CLR 71.4 46.6 41% 29.93 0.0
13 23:55 N 8 10.00 Fair CLR 72 46.4 40% 29.93 0.0
13 23:35 N 8 10.00 Fair CLR 72.7 46.2 39% 29.92 0.0
13 23:15 N 10 G 18 10.00 Fair CLR 73.4 45.5 37% 29.92 0.0
13 22:55 NW 12 G 17 10.00 Fair CLR 73.2 47.5 40% 29.9 0.0
13 22:35 W 3 10.00 Fair CLR 69.4 50.7 52% 29.9 0.0
13 22:15 W 6 10.00 Fair CLR 67.6 54 62% 29.89 0.0
13 21:55 W 3 10.00 Fair CLR 69.3 53.2 57% 29.88 0.0
13 21:35 Calm 10.00 Fair CLR 70 53.6 56% 29.87 0.0
13 21:15 SW 3 10.00 Fair CLR 71.6 54.3 55% 29.87 0.0
13 20:55 Calm 10.00 Fair CLR 74.3 51.6 45% 29.86 0.0
13 20:35 Calm 10.00 Fair CLR 77.7 46.9 34% 78 29.87 0.0
13 20:15 Calm 10.00 Fair CLR 79.7 43.2 27% 79 29.87 0.0
13 19:55 W 3 10.00 Fair CLR 80.1 43 27% 79 29.88 0.0
13 19:35 NW 5 10.00 Fair CLR 80.6 42.4 26% 79 29.87 0.0
13 19:15 NW 8 10.00 Fair CLR 81.5 41.2 24% 80 29.88 0.0
13 18:55 NW 9 10.00 Fair CLR 81.9 42.1 83.3 77.2 24% 80 29.87 0.0
13 18:35 NW 12 10.00 Fair CLR 82 42.8 25% 80 29.87 0.0
13 18:15 NW 10 G 17 10.00 Fair CLR 82.4 43.3 25% 80 29.87 0.0
13 17:55 NW 13 G 20 10.00 Fair CLR 82.6 43.7 25% 81 29.87 0.0
Date Time (cdt) Wind (mph) Vis. (mi.) Weather Sky Cond. Air Dwpt Max. Min. Relative Humidity Wind Chill (°F) Heat Index (°F) altimeter (in) sea level (mb) 1 hr 3 hr 6 hr
6 hour
Temperature (ºF) Pressure Precipitation (in)